STARLINK-11572, 62990

Orbit data source: Space-Track

STARLINK-11572, 62990 is a payload satellite owned by SpaceX/Seattle (US) in LEO that was launched on Tue, 11 Feb 2025 UTC via an FALCON 9 launch vehicle from the Air Force Eastern Test Range (AFETR). Payload-class satellites include a variety of spacecraft equipped with specific instruments for various scientific and technological missions. These include communications satellites like Starlink; space stations such as the ISS; scientific satellites like the Hubble; Earth observation satellites from companies like Planet Labs, Umbra, and HawkEye 360; GPS; miniature CubeSats for education and research; and military/defense satellites.

Loading next visibility...
Identifier
62990, 2025-031K
Orbit
LEO
Country
Flag of USUS
Related business
Manufacturer
SpaceX/Seattle
Mission
Operational Commercial Communications
Bus & Motor
STARLINK V2MD, Unknown motor
Mass
960 kg wet, ~910 kg dry
Launch date (UTC)
2025-02-11 (1 year ago)
Launch vehicle
FALCON 9
Launch site
Air Force Eastern Test Range (AFETR)
Object type
Payload
Rocket body
Debris
Shape & HBR
Box + 2 Pan, 18.1 m
Radar Cross Section
36.964 m², Large (>1 m²)

Expand to show TLE details & history
Last TLE update: 1 day ago

TLE from 1 day ago
0 STARLINK-11572
1 62990U 25031K   26170.54493570  .00163254  00000-0  12482-2 0  9990
2 62990  43.0013 107.3256 0000771 293.7393  66.3393 15.70891452 78764
Epoch: 2026-06-19T13:04Z
TLE epoch observation values (Epoch: 2026-06-19T13:04:42.444Z)
Latitude
-0.00007°
Longitude
3.3763°
Altitude
355.911 km
Speed
7.698 km/s
True Right ascension
07h 09m 18s
True Declination
0° 00' 00"
Sunlit
Object was in daylight at epoch
Visualization orbit readout
Latitude
Unknown
Longitude
Unknown
Altitude
Unknown
Speed
Unknown
Apparent Right ascension
Unknown
Apparent Declination
Unknown
Sunlit
N/A
Visualization observer readout
Local Sidereal Time
07:16:23
Azimuth
Unknown
Elevation
Unknown
Doppler factor
Unknown
Orbital elements
Apogee altitude
358.849 km
Perigee altitude
357.81 km
Semi-major axis
6,736.466 km
Eccentricity
0.00008
Inclination
43.0013°
RAAN
107.3256°
Arg. of periapsis
293.7393°
True anomaly
66.34739°
Mean anomaly
66.3393°
Eccentric anomaly
66.34335°
Mean motion
3.9255 °/min
Orbital period
91.71 mins
BSTAR
0.0012482
Loading maneuver chart data...
Computing Atmospheric mass density...
Loading historical data...
Loading historical data...
Loading historical data...
Loading historical data...
Loading historical data...
Loading historical data...
Loading historical data...

Documentation

Showing up to 5 results
|